Regional Weather Roundup
Issued by NWS Green Bay, WI

Home | Current Version | Previous Version | Text Only | Print | Product List | Glossary On
Versions: 1 2 3 4 5 6 7 8 9 10 11 12 13 14 15 16 17 18 19 20 21 22 23 24 25 26 27 28 29 30 31 32 33 34 35 36 37 38 39 40 41 42 43 44 45 46 47 48 49 50
000
ASUS43 KGRB 200159
RWRGRB

NORTH-CENTRAL AND NORTHEAST WISCONSIN REGIONAL WEATHER ROUNDUP
NATIONAL WEATHER SERVICE GREEN BAY WI
900 PM CDT SAT APR 19 2014

WIZ005-009-010>012-018-019-200300-
NORTH CENTRAL WISCONSIN

CITY           SKY/WX    TMP DP  RH WIND       PRES   REMARKS
IRONWOOD       CLOUDY    50  37  62 S16       30.00R
MANITOWISH WTR NOT AVBL
ARBOR VITAE    NOT AVBL
EAGLE RIVER    NOT AVBL
LAND O LAKES   NOT AVBL
RHINELANDER    LGT RAIN  47  36  65 SE9       30.12S
PHILLIPS       NOT AVBL
ANTIGO         NOT AVBL
TOMAHAWK       NOT AVBL
MERRILL        NOT AVBL
$$

WIZ013-073-200300-
NORTHEAST WISCONSIN

CITY           SKY/WX    TMP DP  RH WIND       PRES   REMARKS
IRON MOUNTAIN  LGT RAIN  44  32  62 SE10      30.14F
MARINETTE      CLOUDY    43  32  65 S6        30.20S
$$

WIZ017-030-035>037-045-200300-
CENTRAL WISCONSIN

CITY           SKY/WX    TMP DP  RH WIND       PRES   REMARKS
MEDFORD        NOT AVBL
WAUSAU         CLOUDY    56  38  50 E8        30.11R
MOSINEE        NOT AVBL
MARSHFIELD     CLOUDY    59  40  49 S12       30.09S
WISC RAPIDS    CLOUDY    60  36  40 S7        30.13R
STEVENS POINT  NOT AVBL
WAUPACA        NOT AVBL
SHAWANO        NOT AVBL
CLINTONVILLE   NOT AVBL
$$

WIZ038-039-048-051-200300-
FOX VALLEY

CITY           SKY/WX    TMP DP  RH WIND       PRES   REMARKS
NWS GREEN BAY  MOCLDY    46  37  71 S8        30.20R
APPLETON       MOCLDY    50  32  50 SE12      30.19R
OSHKOSH        CLOUDY    50  34  54 S7        30.18R
FOND DU LAC    CLOUDY    50  37  61 S16       30.18F
$$

WIZ022-050-052-200300-
EAST CENTRAL WISCONSIN

CITY           SKY/WX    TMP DP  RH WIND       PRES   REMARKS
STURGEON BAY   MOCLDY    39  30  70 S12       30.22R
MANITOWOC      NOT AVBL
SHEBOYGAN      CLOUDY    42  33  70 S8        30.23S
$$

LMZ563-521-522-541>543-200300-
LAKESHORE

STATION/POSITION TIME  TEMP    WIND        PRES    VSBY  WAVE
                       AIR SEA DIR/SP/G                  HT/PER
                 (UTC) (F)     (DEG/KT/KT) (MB)    (MI)  (FT/S)
SHEBOYGAN LKSHOR 0100   46     200/  6/  6 1024.7R
KEWAUNEE LKSHORE 0100   37     150/  8/ 10 1024.2S
TWO RIVERS CG    0100   40                   N/A       6   1
NORTHPORT PIER   0100   38     150/  9/ 13 1023.4S
SISTER BAY LKSHO 0100   39     150/ 12/ 16   N/A
MENOMINEE LKSHOR 0100   36     150/  5/  7 1023.3S
$$



USA.gov is the U.S. government's official web portal to all federal, state and local government web resources and services.